LAN1498 SCEL-SAZS

Flight info

Callsign LAN1498
Flight time 1h 25m
Altitude 35000
Route LINER6C LINER UQ805 IRUDI DCT TONAR TONAR2Q
Aircraft A320/M-SDE3FGHIRWY/LB1

Departure

Time 2026-04-24 12:32
Airport Comodoro Arturo Merino Benítez International Airport (SCEL)

Arrival

Time 2026-04-24 13:57
Airport Teniente Luis Candelaria International Airport (SAZS)
Time Latitude Longitude Altitude Speed Heading
2026-04-24 12:16 -33.39570 -70.79018 1564 ft 0 kts 184°
2026-04-24 12:23 -33.39569 -70.79018 1565 ft 2 kts 184°
2026-04-24 12:24 -33.39556 -70.79016 1565 ft 2 kts 184°
2026-04-24 12:24 -33.39542 -70.79015 1565 ft 2 kts 184°
2026-04-24 12:24 -33.39528 -70.79014 1565 ft 2 kts 184°
2026-04-24 12:24 -33.39514 -70.79013 1565 ft 2 kts 187°
2026-04-24 12:25 -33.39501 -70.79012 1565 ft 2 kts 124°
2026-04-24 12:25 -33.39497 -70.79017 1564 ft 0 kts 79°
2026-04-24 12:26 -33.39496 -70.79008 1564 ft 2 kts 79°
2026-04-24 12:27 -33.39493 -70.78977 1564 ft 5 kts 86°
2026-04-24 12:27 -33.39489 -70.78918 1564 ft 9 kts 77°
2026-04-24 12:27 -33.39436 -70.78859 1564 ft 12 kts 28°
2026-04-24 12:27 -33.39349 -70.78802 1564 ft 16 kts 20°
2026-04-24 12:28 -33.39228 -70.78800 1564 ft 19 kts 356°
2026-04-24 12:28 -33.39086 -70.78808 1564 ft 22 kts 357°
2026-04-24 12:28 -33.38921 -70.78817 1564 ft 25 kts 358°
2026-04-24 12:28 -33.38739 -70.78826 1564 ft 27 kts 358°
2026-04-24 12:29 -33.38540 -70.78836 1564 ft 30 kts 357°
2026-04-24 12:29 -33.38337 -70.78848 1564 ft 29 kts 357°
2026-04-24 12:29 -33.38132 -70.78859 1564 ft 29 kts 358°
2026-04-24 12:29 -33.37929 -70.78869 1565 ft 29 kts 358°
2026-04-24 12:30 -33.37734 -70.78879 1564 ft 19 kts 358°
2026-04-24 12:30 -33.37631 -70.78820 1564 ft 17 kts 71°
2026-04-24 12:30 -33.37621 -70.78751 1564 ft 6 kts 90°
2026-04-24 12:30 -33.37627 -70.78715 1564 ft 3 kts 105°
2026-04-24 12:31 -33.37653 -70.78681 1565 ft 13 kts 151°
2026-04-24 12:31 -33.37749 -70.78664 1565 ft 17 kts 177°
2026-04-24 12:31 -33.38077 -70.78645 1565 ft 82 kts 176°
2026-04-24 12:31 -33.38856 -70.78603 1565 ft 139 kts 178°
2026-04-24 12:32 -33.39964 -70.78545 1630 ft 176 kts 178°
2026-04-24 12:32 -33.41161 -70.78494 2358 ft 172 kts 176°
2026-04-24 12:32 -33.42371 -70.78417 2934 ft 181 kts 176°
2026-04-24 12:32 -33.43704 -70.78323 3178 ft 202 kts 176°
2026-04-24 12:33 -33.45154 -70.78239 3480 ft 219 kts 177°
2026-04-24 12:33 -33.46771 -70.78145 3681 ft 247 kts 176°
2026-04-24 12:33 -33.48576 -70.78052 4032 ft 268 kts 177°
2026-04-24 12:33 -33.50443 -70.77955 4910 ft 270 kts 176°
2026-04-24 12:34 -33.52332 -70.77832 5685 ft 275 kts 176°
2026-04-24 12:34 -33.54262 -70.77702 6435 ft 281 kts 176°
2026-04-24 12:34 -33.56235 -70.77565 7148 ft 286 kts 177°
2026-04-24 12:34 -33.58245 -70.77427 7878 ft 291 kts 177°
2026-04-24 12:35 -33.60275 -70.77291 8607 ft 295 kts 177°
2026-04-24 12:35 -33.62342 -70.77155 9340 ft 300 kts 178°
2026-04-24 12:35 -33.64418 -70.77023 10062 ft 304 kts 178°
2026-04-24 12:35 -33.66544 -70.76890 10724 ft 309 kts 178°
2026-04-24 12:36 -33.68768 -70.76752 10948 ft 332 kts 178°
2026-04-24 12:36 -33.71157 -70.76603 11096 ft 355 kts 178°
2026-04-24 12:36 -33.73699 -70.76443 11227 ft 376 kts 178°
2026-04-24 12:36 -33.76381 -70.76275 11349 ft 396 kts 178°
2026-04-24 12:37 -33.79181 -70.76097 11662 ft 407 kts 178°
2026-04-24 12:37 -33.82019 -70.75913 12197 ft 411 kts 178°
2026-04-24 12:37 -33.84881 -70.75728 12780 ft 414 kts 178°
2026-04-24 12:37 -33.87767 -70.75539 13351 ft 416 kts 178°
2026-04-24 12:38 -33.90666 -70.75350 13921 ft 419 kts 179°
2026-04-24 12:38 -33.93577 -70.75406 14423 ft 419 kts 188°
2026-04-24 12:38 -33.96476 -70.75880 14941 ft 420 kts 190°
2026-04-24 12:39 -34.05224 -70.77360 16380 ft 426 kts 191°
2026-04-24 12:39 -34.08173 -70.77856 16858 ft 428 kts 191°
2026-04-24 12:39 -34.11127 -70.78351 17323 ft 430 kts 191°
2026-04-24 12:40 -34.14106 -70.78854 17783 ft 433 kts 191°
2026-04-24 12:40 -34.17094 -70.79360 18238 ft 435 kts 191°
2026-04-24 12:40 -34.20102 -70.79869 18665 ft 437 kts 191°
2026-04-24 12:40 -34.23115 -70.80378 19049 ft 439 kts 192°
2026-04-24 12:41 -34.26153 -70.80891 19419 ft 441 kts 192°
2026-04-24 12:41 -34.29202 -70.81406 19781 ft 443 kts 192°
2026-04-24 12:41 -34.32250 -70.81922 20137 ft 445 kts 192°
2026-04-24 12:41 -34.35286 -70.82435 20494 ft 446 kts 192°
2026-04-24 12:42 -34.38404 -70.82964 20830 ft 448 kts 192°
2026-04-24 12:42 -34.41503 -70.83492 21166 ft 450 kts 192°
2026-04-24 12:42 -34.44575 -70.84015 21489 ft 452 kts 192°
2026-04-24 12:42 -34.47698 -70.84546 21821 ft 454 kts 192°
2026-04-24 12:43 -34.50829 -70.85077 22146 ft 455 kts 192°
2026-04-24 12:43 -34.53969 -70.85610 22484 ft 457 kts 192°
2026-04-24 12:43 -34.57118 -70.86149 22802 ft 459 kts 193°
2026-04-24 12:43 -34.60297 -70.86697 23106 ft 460 kts 193°
2026-04-24 12:44 -34.63463 -70.87241 23414 ft 462 kts 193°
2026-04-24 12:44 -34.66659 -70.87788 23712 ft 464 kts 193°
2026-04-24 12:44 -34.69861 -70.88335 23969 ft 465 kts 193°
2026-04-24 12:44 -34.73079 -70.88886 24230 ft 467 kts 193°
2026-04-24 12:45 -34.76292 -70.89434 24482 ft 467 kts 193°
2026-04-24 12:45 -34.79509 -70.89981 24853 ft 465 kts 193°
2026-04-24 12:45 -34.82709 -70.90527 25227 ft 464 kts 193°
2026-04-24 12:45 -34.85896 -70.91072 25589 ft 463 kts 193°
2026-04-24 12:46 -34.89091 -70.91616 25965 ft 461 kts 193°
2026-04-24 12:46 -34.92260 -70.92158 26345 ft 460 kts 193°
2026-04-24 12:46 -34.95436 -70.92701 26687 ft 459 kts 194°
2026-04-24 12:46 -34.98592 -70.93253 27031 ft 458 kts 194°
2026-04-24 12:47 -35.01733 -70.93806 27415 ft 456 kts 194°
2026-04-24 12:47 -35.04876 -70.94353 27805 ft 455 kts 194°
2026-04-24 12:47 -35.08015 -70.94890 28198 ft 454 kts 194°
2026-04-24 12:47 -35.11131 -70.95421 28590 ft 453 kts 194°
2026-04-24 12:48 -35.14247 -70.95955 28988 ft 451 kts 194°
2026-04-24 12:48 -35.17348 -70.96490 29395 ft 450 kts 194°
2026-04-24 12:48 -35.20444 -70.97025 29779 ft 448 kts 194°
2026-04-24 12:48 -35.23530 -70.97559 30178 ft 448 kts 195°
2026-04-24 12:49 -35.26606 -70.98090 30484 ft 447 kts 194°
2026-04-24 12:49 -35.29688 -70.98623 30771 ft 446 kts 195°
2026-04-24 12:49 -35.32760 -70.99158 31071 ft 445 kts 195°
2026-04-24 12:49 -35.35696 -70.99671 31335 ft 444 kts 195°
2026-04-24 12:50 -35.38754 -71.00205 31627 ft 444 kts 195°
2026-04-24 12:50 -35.41805 -71.00738 31944 ft 443 kts 195°
2026-04-24 12:50 -35.44860 -71.01270 32268 ft 442 kts 195°
2026-04-24 12:50 -35.47895 -71.01800 32620 ft 441 kts 195°
2026-04-24 12:51 -35.50935 -71.02333 32872 ft 441 kts 195°
2026-04-24 12:51 -35.53976 -71.02861 33174 ft 440 kts 195°
2026-04-24 12:51 -35.57005 -71.03392 33470 ft 439 kts 196°
2026-04-24 12:51 -35.59997 -71.03923 33686 ft 439 kts 196°
2026-04-24 12:52 -35.63025 -71.04461 34013 ft 439 kts 196°
2026-04-24 12:52 -35.66039 -71.04991 34267 ft 438 kts 196°
2026-04-24 12:52 -35.69056 -71.05520 34491 ft 437 kts 196°
2026-04-24 12:52 -35.72069 -71.06044 34743 ft 438 kts 196°
2026-04-24 12:53 -35.75091 -71.06570 34968 ft 438 kts 196°
2026-04-24 12:53 -35.78110 -71.07098 35169 ft 438 kts 196°
2026-04-24 12:53 -35.81133 -71.07630 35240 ft 441 kts 196°
2026-04-24 12:54 -35.87250 -71.08716 35247 ft 445 kts 196°
2026-04-24 12:54 -35.93385 -71.09803 35251 ft 446 kts 196°
2026-04-24 12:55 -35.98489 -71.10699 35245 ft 446 kts 195°
2026-04-24 12:55 -36.04651 -71.11783 35255 ft 447 kts 195°
2026-04-24 12:56 -36.10805 -71.12869 35246 ft 447 kts 196°
2026-04-24 12:56 -36.16950 -71.13962 35241 ft 446 kts 196°
2026-04-24 12:57 -36.23092 -71.15059 35254 ft 446 kts 195°
2026-04-24 12:57 -36.29250 -71.16152 35264 ft 447 kts 195°
2026-04-24 12:58 -36.35402 -71.17242 35251 ft 446 kts 195°
2026-04-24 12:58 -36.41557 -71.18342 35247 ft 446 kts 195°
2026-04-24 12:59 -36.47709 -71.19446 35266 ft 447 kts 195°
2026-04-24 12:59 -36.53866 -71.20550 35247 ft 447 kts 195°
2026-04-24 13:00 -36.60039 -71.21660 35245 ft 448 kts 195°
2026-04-24 13:00 -36.66210 -71.22766 35245 ft 448 kts 195°
2026-04-24 13:01 -36.72383 -71.23872 35241 ft 448 kts 195°
2026-04-24 13:01 -36.78561 -71.24979 35244 ft 448 kts 195°
2026-04-24 13:02 -36.84695 -71.26097 35240 ft 448 kts 195°
2026-04-24 13:02 -36.90861 -71.27220 35239 ft 448 kts 195°
2026-04-24 13:03 -36.97032 -71.28345 35252 ft 448 kts 194°
2026-04-24 13:03 -37.03220 -71.29462 35265 ft 449 kts 194°
2026-04-24 13:04 -37.09407 -71.30587 35263 ft 449 kts 194°
2026-04-24 13:04 -37.15590 -71.31717 35263 ft 449 kts 194°
2026-04-24 13:05 -37.21766 -71.32841 35273 ft 449 kts 194°
2026-04-24 13:05 -37.27959 -71.33967 35269 ft 449 kts 194°
2026-04-24 13:06 -37.34116 -71.35089 35269 ft 449 kts 194°
2026-04-24 13:06 -37.40341 -71.36234 35278 ft 450 kts 194°
2026-04-24 13:07 -37.46491 -71.37367 35278 ft 449 kts 194°
2026-04-24 13:07 -37.52678 -71.38500 35273 ft 449 kts 194°
2026-04-24 13:08 -37.58870 -71.39639 35284 ft 450 kts 194°
2026-04-24 13:08 -37.65065 -71.40784 35307 ft 449 kts 194°
2026-04-24 13:09 -37.74357 -71.42497 35293 ft 450 kts 194°
2026-04-24 13:09 -37.80555 -71.43651 35293 ft 450 kts 194°
2026-04-24 13:10 -37.86754 -71.44803 35324 ft 450 kts 194°
2026-04-24 13:10 -37.92954 -71.45960 35320 ft 450 kts 194°
2026-04-24 13:11 -37.99149 -71.47114 35311 ft 450 kts 194°
2026-04-24 13:11 -38.05352 -71.48273 35304 ft 450 kts 194°
2026-04-24 13:12 -38.11520 -71.49420 35305 ft 450 kts 194°
2026-04-24 13:12 -38.17720 -71.50582 35297 ft 451 kts 194°
2026-04-24 13:13 -38.23928 -71.51748 35290 ft 451 kts 194°
2026-04-24 13:13 -38.30137 -71.52919 35278 ft 451 kts 194°
2026-04-24 13:14 -38.36347 -71.54092 35308 ft 451 kts 193°
2026-04-24 13:14 -38.42558 -71.55260 35293 ft 451 kts 193°
2026-04-24 13:15 -38.48778 -71.56430 35302 ft 451 kts 194°
2026-04-24 13:15 -38.54980 -71.57601 35293 ft 450 kts 194°
2026-04-24 13:16 -38.61176 -71.58778 35303 ft 449 kts 193°
2026-04-24 13:16 -38.67364 -71.59959 35292 ft 449 kts 193°
2026-04-24 13:17 -38.73545 -71.61133 35282 ft 449 kts 193°
2026-04-24 13:17 -38.79719 -71.62305 35289 ft 449 kts 193°
2026-04-24 13:18 -38.85903 -71.63482 35274 ft 448 kts 193°
2026-04-24 13:18 -38.92032 -71.64659 35264 ft 448 kts 193°
2026-04-24 13:19 -38.98207 -71.65854 35258 ft 448 kts 193°
2026-04-24 13:19 -39.04388 -71.67034 35266 ft 448 kts 193°
2026-04-24 13:20 -39.10564 -71.68215 35251 ft 448 kts 193°
2026-04-24 13:20 -39.16696 -71.69395 35245 ft 448 kts 193°
2026-04-24 13:21 -39.22901 -71.70599 35241 ft 448 kts 193°
2026-04-24 13:21 -39.29067 -71.71797 35247 ft 448 kts 193°
2026-04-24 13:22 -39.35200 -71.72981 35242 ft 448 kts 193°
2026-04-24 13:22 -39.41367 -71.74172 35231 ft 448 kts 193°
2026-04-24 13:23 -39.47531 -71.75374 35244 ft 448 kts 193°
2026-04-24 13:23 -39.53694 -71.76570 35238 ft 448 kts 193°
2026-04-24 13:24 -39.59849 -71.77769 35226 ft 447 kts 193°
2026-04-24 13:24 -39.66002 -71.78976 35210 ft 446 kts 193°
2026-04-24 13:25 -39.72142 -71.80176 35206 ft 447 kts 193°
2026-04-24 13:25 -39.78293 -71.81379 35200 ft 447 kts 193°
2026-04-24 13:26 -39.84447 -71.82591 35187 ft 447 kts 193°
2026-04-24 13:26 -39.90591 -71.83805 35200 ft 447 kts 193°
2026-04-24 13:27 -39.96739 -71.85014 35219 ft 447 kts 193°
2026-04-24 13:27 -40.02883 -71.86226 35195 ft 446 kts 193°
2026-04-24 13:28 -40.09027 -71.87444 35192 ft 446 kts 193°
2026-04-24 13:28 -40.15167 -71.88656 35210 ft 446 kts 193°
2026-04-24 13:29 -40.21263 -71.89867 35194 ft 446 kts 193°
2026-04-24 13:29 -40.27434 -71.91104 35187 ft 446 kts 193°
2026-04-24 13:30 -40.33554 -71.92321 35192 ft 445 kts 192°
2026-04-24 13:30 -40.39676 -71.93547 35193 ft 445 kts 193°
2026-04-24 13:31 -40.45804 -71.94778 35185 ft 445 kts 192°
2026-04-24 13:31 -40.51896 -71.95991 35172 ft 446 kts 192°
2026-04-24 13:32 -40.58024 -71.97224 35185 ft 446 kts 193°
2026-04-24 13:32 -40.64158 -71.98467 35194 ft 446 kts 193°
2026-04-24 13:33 -40.70309 -71.99706 35186 ft 446 kts 193°
2026-04-24 13:33 -40.76449 -72.00937 35185 ft 446 kts 193°
2026-04-24 13:34 -40.82587 -72.02173 35181 ft 446 kts 193°
2026-04-24 13:34 -40.88746 -72.03420 35177 ft 447 kts 193°
2026-04-24 13:35 -40.94896 -72.04667 35173 ft 447 kts 193°
2026-04-24 13:35 -41.01035 -72.05914 35221 ft 445 kts 193°
2026-04-24 13:36 -41.07143 -72.07165 35196 ft 444 kts 193°
2026-04-24 13:36 -41.13308 -72.07692 35184 ft 453 kts 175°
2026-04-24 13:37 -41.16342 -72.06636 35189 ft 460 kts 162°
2026-04-24 13:37 -41.19200 -72.04578 35175 ft 467 kts 147°
2026-04-24 13:37 -41.21617 -72.01724 34624 ft 473 kts 134°
2026-04-24 13:37 -41.23476 -71.98068 33041 ft 485 kts 116°
2026-04-24 13:38 -41.24503 -71.93777 31425 ft 494 kts 99°
2026-04-24 13:38 -41.24672 -71.89144 29754 ft 498 kts 84°
2026-04-24 13:38 -41.24107 -71.84659 27896 ft 501 kts 78°
2026-04-24 13:38 -41.23415 -71.80094 25830 ft 508 kts 78°
2026-04-24 13:39 -41.22713 -71.75458 23781 ft 517 kts 78°
2026-04-24 13:39 -41.22234 -71.72286 22591 ft 517 kts 78°
2026-04-24 13:39 -41.21310 -71.66169 20753 ft 504 kts 78°
2026-04-24 13:39 -41.20626 -71.61642 19403 ft 497 kts 79°
2026-04-24 13:40 -41.19948 -71.57176 18027 ft 491 kts 79°
2026-04-24 13:40 -41.19273 -71.52753 16524 ft 485 kts 79°
2026-04-24 13:40 -41.18822 -71.49834 15352 ft 473 kts 78°
2026-04-24 13:40 -41.18167 -71.45651 13402 ft 463 kts 79°
2026-04-24 13:41 -41.17545 -71.41519 11465 ft 454 kts 79°
2026-04-24 13:41 -41.16927 -71.37452 10453 ft 441 kts 79°
2026-04-24 13:41 -41.16307 -71.33598 10182 ft 414 kts 75°
2026-04-24 13:41 -41.15137 -71.30244 10056 ft 392 kts 49°
2026-04-24 13:42 -41.13176 -71.27959 9925 ft 362 kts 21°
2026-04-24 13:42 -41.10903 -71.27136 9918 ft 323 kts 352°
2026-04-24 13:42 -41.08820 -71.27642 9771 ft 292 kts 328°
2026-04-24 13:42 -41.07152 -71.28931 9628 ft 264 kts 311°
2026-04-24 13:43 -41.05934 -71.30567 9493 ft 238 kts 304°
2026-04-24 13:43 -41.04849 -71.32127 9229 ft 227 kts 304°
2026-04-24 13:43 -41.03767 -71.33681 8844 ft 228 kts 304°
2026-04-24 13:43 -41.02705 -71.35214 8549 ft 224 kts 303°
2026-04-24 13:44 -41.02023 -71.36977 8190 ft 212 kts 277°
2026-04-24 13:44 -41.02094 -71.38884 7813 ft 209 kts 253°
2026-04-24 13:44 -41.02886 -71.40546 7306 ft 223 kts 225°
2026-04-24 13:44 -41.04262 -71.41534 7054 ft 229 kts 202°
2026-04-24 13:45 -41.05814 -71.42004 6824 ft 227 kts 203°
2026-04-24 13:45 -41.07344 -71.42530 6593 ft 231 kts 193°
2026-04-24 13:45 -41.08971 -71.42228 6336 ft 245 kts 163°
2026-04-24 13:45 -41.10293 -71.40789 6123 ft 251 kts 126°
2026-04-24 13:46 -41.10919 -71.38656 5997 ft 256 kts 104°
2026-04-24 13:46 -41.11419 -71.36389 5940 ft 253 kts 111°
2026-04-24 13:46 -41.12049 -71.34190 6021 ft 256 kts 114°
2026-04-24 13:46 -41.12718 -71.31991 6025 ft 257 kts 114°
2026-04-24 13:47 -41.13384 -71.29794 6026 ft 257 kts 113°
2026-04-24 13:47 -41.14038 -71.27594 6013 ft 256 kts 113°
2026-04-24 13:47 -41.14682 -71.25378 6007 ft 257 kts 112°
2026-04-24 13:47 -41.15312 -71.23161 6004 ft 257 kts 112°
2026-04-24 13:48 -41.16012 -71.20978 6003 ft 256 kts 118°
2026-04-24 13:48 -41.16795 -71.18886 6007 ft 255 kts 119°
2026-04-24 13:48 -41.17596 -71.16780 6009 ft 255 kts 119°
2026-04-24 13:48 -41.18381 -71.14721 6006 ft 243 kts 120°
2026-04-24 13:49 -41.19123 -71.12763 5996 ft 233 kts 119°
2026-04-24 13:49 -41.19845 -71.10867 6022 ft 221 kts 119°
2026-04-24 13:49 -41.20504 -71.09119 6008 ft 204 kts 120°
2026-04-24 13:49 -41.21107 -71.07491 6000 ft 190 kts 119°
2026-04-24 13:50 -41.21673 -71.05940 6002 ft 184 kts 120°
2026-04-24 13:50 -41.22224 -71.04416 6008 ft 182 kts 119°
2026-04-24 13:50 -41.22771 -71.02900 6021 ft 182 kts 119°
2026-04-24 13:50 -41.23313 -71.01381 6021 ft 186 kts 118°
2026-04-24 13:51 -41.23863 -70.99821 6013 ft 186 kts 121°
2026-04-24 13:51 -41.24482 -70.98320 6005 ft 186 kts 124°
2026-04-24 13:51 -41.25110 -70.96809 6019 ft 188 kts 117°
2026-04-24 13:51 -41.25205 -70.95093 6006 ft 193 kts 67°
2026-04-24 13:52 -41.24414 -70.93783 6000 ft 176 kts 14°
2026-04-24 13:52 -41.23311 -70.93648 6000 ft 151 kts 329°
2026-04-24 13:52 -41.22523 -70.94436 5981 ft 139 kts 295°
2026-04-24 13:52 -41.22122 -70.95587 5845 ft 138 kts 291°
2026-04-24 13:53 -41.21696 -70.96811 5715 ft 150 kts 292°
2026-04-24 13:53 -41.21270 -70.98030 5503 ft 141 kts 292°
2026-04-24 13:53 -41.20866 -70.99195 5314 ft 137 kts 292°
2026-04-24 13:53 -41.20465 -71.00350 5132 ft 138 kts 291°
2026-04-24 13:54 -41.20066 -71.01503 4954 ft 137 kts 292°
2026-04-24 13:54 -41.19671 -71.02642 4762 ft 136 kts 291°
2026-04-24 13:54 -41.19277 -71.03786 4556 ft 136 kts 291°
2026-04-24 13:54 -41.18883 -71.04927 4353 ft 135 kts 292°
2026-04-24 13:55 -41.18491 -71.06058 4177 ft 134 kts 291°
2026-04-24 13:55 -41.18105 -71.07172 4006 ft 133 kts 293°
2026-04-24 13:55 -41.17719 -71.08287 3817 ft 133 kts 292°
2026-04-24 13:55 -41.17330 -71.09407 3626 ft 133 kts 292°
2026-04-24 13:56 -41.16943 -71.10518 3452 ft 132 kts 292°
2026-04-24 13:56 -41.16562 -71.11624 3272 ft 132 kts 293°
2026-04-24 13:56 -41.16175 -71.12739 3095 ft 133 kts 292°
2026-04-24 13:56 -41.15779 -71.13827 2905 ft 129 kts 293°
2026-04-24 13:57 -41.15413 -71.14910 2761 ft 127 kts 293°
2026-04-24 13:57 -41.15086 -71.15848 2751 ft 80 kts 295°
2026-04-24 13:57 -41.14969 -71.16181 2754 ft 31 kts 294°
2026-04-24 13:57 -41.14945 -71.16252 2754 ft 30 kts 293°